Miscellaneous Local Product
Issued by NWS Hastings, NE

Home | Current Version | Previous Version | Text Only | Print | Product List | Glossary Off
Versions: 1 2 3 4 5 6 7 8 9 10 11 12 13 14 15 16 17 18 19 20 21 22 23 24 25 26 27 28 29 30 31 32 33 34 35 36 37 38 39 40 41 42 43 44 45 46 47 48 49 50

000
AXUS43 KGID 261002
MISGRI

GID CWA HOURLY WEATHER ROUNDUP
NATIONAL WEATHER SERVICE HASTINGS NE
500 AM CDT SAT JUL 26 2014

NOTE: "FAIR" INDICATES FEW OR NO CLOUDS BELOW 12,000 FEET WITH NO
SIGNIFICANT WEATHER AND/OR OBSTRUCTIONS TO VISIBILITY.

...SOUTH CENTRAL NEBRASKA...

CITY           SKY/WX    TMP DP  RH WIND       PRES   REMARKS
GRAND ISLAND   CLOUDY    74  72  93 CALM      29.85R FOG
HASTINGS       CLOUDY    74  69  85 W9        29.86R HAZE
KEARNEY        MOCLDY    73  70  88 S6        29.86F
ORD            MOCLDY    71  70  96 SW3       29.86R FOG
YORK           FOG       75  75 100 NE7       29.82R VSB 3/4
AURORA         CLOUDY    75  75 100 NW3       29.84R FOG
LEXINGTON      MOCLDY    72  69  90 CALM      29.86F
HOLDREGE       CLOUDY    71  68  91 NE3       29.84F
HEBRON         CLOUDY    74  71  88 CALM      29.78F FOG

...NEBRASKA PANHANDLE...

CITY           SKY/WX    TMP DP  RH WIND       PRES   REMARKS
CHADRON        CLEAR     62  52  69 W8        29.92R
ALLIANCE       CLEAR     62  54  74 W6        29.92R
SCOTTSBLUFF    CLEAR     65  55  70 W12       29.95R
SIDNEY         CLEAR     64  53  67 W8        30.00R

...WESTERN AND NORTH CENTRAL NEBRASKA...

CITY           SKY/WX    TMP DP  RH WIND       PRES   REMARKS
VALENTINE      LGT RAIN  70  68  93 SE15      29.86S
AINSWORTH      CLOUDY    69  68  98 SE8       29.88R FOG
ONEILL         MOCLDY    70  67  89 S7        29.85R FOG
BROKEN BOW     PTCLDY    68  66  93 NE3       29.89R
IMPERIAL       PTCLDY    70  63  78 W6        29.91F
NORTH PLATTE   CLEAR     72  66  81 SE3       29.88F
MCCOOK         CLOUDY    70  66  87 NW6       29.86F

...EASTERN NEBRASKA...

CITY           SKY/WX    TMP DP  RH WIND       PRES   REMARKS
NORFOLK        MOCLDY    72  70  93 S7        29.83S FOG
SO SIOUX CITY  MOCLDY    70  68  93 S6        29.80R
COLUMBUS       CLOUDY    73  70  88 NE6       29.82F
ALBION         MOCLDY    73  71  93 E3        29.84F FOG
OMAHA EPPLEY   MOCLDY    74  70  87 SE5       29.80F
OFFUTT AFB     CLOUDY    72  72 100 NE5       29.79F
MILLARD        CLOUDY    75  72  89 CALM      29.79S
LINCOLN        CLOUDY    77  73  87 E6        29.80S
NEBRASKA CITY  CLOUDY    72  72 100 NE7       29.80F FOG
BEATRICE       CLOUDY    75  73  95 E5        29.78F
FALLS CITY     MOCLDY    75  71  87 E3        29.78F

...NORTHERN KANSAS...

CITY           SKY/WX    TMP DP  RH WIND       PRES   REMARKS
GOODLAND       MOCLDY    68  63  84 VRB3      29.96R
HILL CITY      CLOUDY    74  67  78 W6        29.81F
NORTON         SUNNY     70  61  73 CALM      29.82F
PHILLIPSBURG   CLEAR     75  64  69 NW9       29.81F
SMITH CENTER   CLEAR     79  70  73 N12       29.78F
HAYS           CLOUDY    75  66  73 W6        29.81F
RUSSELL        CLOUDY    77  66  68 SE6       29.81F
CONCORDIA      CLOUDY    75  65  70 CALM      29.76F
SALINA         CLOUDY    83  59  44 SW13      29.81R
TOPEKA         MOCLDY    84  69  60 SW6G18    29.79S



USA.gov is the U.S. government's official web portal to all federal, state and local government web resources and services.